Location: ???????
(52.3000°N, 54.4667°E)
Time: 10:53:07
(UTC+00:00)

Cosmos 2221 - Pass Details

Date: 24 January 2020
Orbit: 593 x 616 km, 82.5° (Epoch: 18 February)

Event Time Altitude Azimuth Distance (km) Brightness Sun altitude
Rises 15:41:43 0° 346° (NNW) 2,847 6.1 -25.4°
Reaches altitude 10° 15:43:57 10° 344° (NNW) 1,942 5.3 -25.7°
Enters shadow 15:48:06 62° 270° (W) 675 2.9 -26.3°
